Theta_e
304 295 292 291 295 298 299 299 299 299 299 298 298 296 294 294 295 298 295 297 298 296 294 295 295 295 297 296 296 297 297 297 297 296 296 296 296 296 296 296 296 295 295 297 298 298 299 299 299 300 301 302 302 304 305 304 304 305 304 304 304 305 305 304 303 301 300 298 297 297 296 295 296 296 296 295 295 295 295 296 296 295 295 296 296 297
304 294 294 298 299 300 300 301 300 299 298 297 296 294 293 295 292 298 297 296 298 295 292 295 295 296 297 299 297 297 296 295 296 296 296 296 296 296 296 295 295 295 296 296 296 297 298 298 300 300 300 301 301 301 303 303 303 304 304 303 303 303 302 301 300 299 298 298 297 295 295 295 295 294 293 293 293 293 293 293 293 293 293 293 294 294
294 292 297 300 302 302 301 301 300 299 297 297 293 293 292 293 296 299 295 297 296 295 291 294 294 295 298 300 297 296 295 296 298 298 297 296 295 295 296 295 295 294 294 295 295 296 296 298 299 299 299 299 300 301 301 302 303 303 302 301 301 300 299 299 299 298 297 298 297 295 294 294 293 293 293 292 292 292 291 291 291 292 292 292 292 292
291 295 299 302 302 300 300 298 298 298 299 294 293 291 289 295 294 290 295 296 296 294 293 293 292 294 297 298 296 297 296 297 299 298 298 297 296 295 295 296 295 294 294 293 293 294 296 296 297 298 298 298 300 300 300 301 302 302 301 300 299 297 297 297 297 296 296 296 296 295 294 293 292 290 291 291 290 290 290 289 290 291 291 291 291 291
295 301 304 302 301 300 298 298 296 294 292 295 295 293 292 294 295 294 293 294 295 296 296 293 291 292 295 295 293 296 297 295 294 295 294 294 296 296 296 296 296 295 294 293 294 294 294 295 296 297 297 299 298 298 299 300 300 301 299 298 297 297 297 297 296 295 294 294 294 294 293 293 292 291 289 288 288 288 289 289 289 289 290 290 290 290
297 303 304 301 300 299 298 295 295 295 291 293 296 295 295 297 295 296 298 293 291 290 294 293 284 284 293 295 296 293 291 292 293 292 292 293 294 293 292 293 294 296 295 294 293 293 294 294 295 296 297 297 296 296 298 299 299 299 299 299 298 297 297 297 296 296 295 294 293 292 290 288 288 286 286 285 285 286 287 287 288 289 289 289 289 289
298 302 302 300 298 297 297 295 297 296 292 290 293 299 298 296 296 296 295 294 284 283 292 295 285 283 292 293 294 291 291 291 292 291 292 293 293 292 292 293 292 293 293 294 294 293 293 294 295 296 296 295 294 295 297 297 297 297 297 296 296 295 295 297 295 296 295 293 292 291 290 288 287 286 286 286 286 286 287 287 287 288 288 289 288 288
299 298 299 300 299 296 295 293 298 297 293 290 296 299 299 297 296 295 295 293 290 295 295 294 292 283 284 291 293 292 291 291 291 291 292 293 293 292 293 293 292 292 292 292 292 293 293 294 294 294 295 294 294 294 295 294 295 294 294 294 294 293 294 294 294 294 293 291 291 289 289 288 287 286 286 287 287 287 287 286 286 287 287 288 288 288
298 295 298 297 296 295 294 297 299 299 295 294 296 299 297 297 297 296 294 291 290 288 285 287 292 283 283 290 293 292 289 289 290 290 291 292 292 292 293 293 293 293 292 292 292 292 293 294 293 292 291 292 293 293 292 292 292 293 293 293 292 292 292 292 293 292 292 291 290 289 288 287 287 287 287 288 288 287 287 286 286 286 286 287 288 288
300 298 300 300 297 294 298 296 299 300 295 297 298 298 297 297 295 296 289 289 287 286 283 286 291 284 285 290 289 290 289 290 291 292 292 293 293 292 292 292 293 293 292 293 293 292 292 291 291 291 291 291 291 292 293 292 292 292 292 291 291 291 291 292 291 291 291 290 290 288 288 287 287 287 287 287 287 286 286 286 285 285 285 285 286 286
298 297 297 299 297 299 294 294 295 298 298 298 298 296 294 293 291 290 290 288 286 283 285 289 291 289 282 288 289 289 290 294 295 293 293 293 293 292 293 292 292 292 292 292 292 291 291 290 290 290 290 290 290 290 291 291 291 291 291 290 290 290 291 291 291 291 290 290 289 289 288 287 287 287 287 286 286 286 285 285 285 284 285 285 285 285
296 297 297 297 299 298 298 293 295 296 297 298 293 290 291 288 288 286 286 288 283 282 286 290 291 291 281 284 292 295 296 296 296 293 292 293 293 292 292 292 292 292 292 292 291 290 289 289 289 289 289 289 289 290 290 290 291 291 290 290 290 290 290 291 291 291 291 290 290 289 289 288 288 288 288 286 286 285 285 285 285 284 285 284 285 285
292 292 297 296 298 299 295 293 292 295 294 295 292 291 285 284 284 280 283 281 282 281 283 287 290 287 287 291 293 294 294 295 297 297 294 294 293 292 292 292 292 292 291 291 290 289 288 288 288 288 288 288 289 289 290 290 290 290 290 290 289 289 290 290 290 290 290 290 289 289 289 288 288 288 287 287 286 286 285 285 285 284 283 283 283 283
290 295 296 296 296 297 298 291 285 285 289 291 289 287 284 283 281 280 282 283 282 283 283 285 288 284 287 290 297 297 292 293 292 294 295 295 293 293 292 292 291 291 290 290 290 288 288 288 288 288 288 288 289 289 290 290 290 290 290 289 289 289 289 289 290 289 289 289 289 289 288 288 288 287 287 286 286 286 286 286 285 284 284 283 283 283
283 284 291 293 289 298 297 297 294 291 289 292 294 292 288 287 283 279 281 279 281 281 281 284 283 280 281 286 287 289 289 290 290 293 294 293 293 292 291 291 290 290 290 290 289 289 289 289 288 288 288 288 289 289 290 290 289 289 289 289 288 288 288 289 288 288 288 288 288 288 288 288 288 287 287 287 287 286 286 285 285 284 284 283 283 283
289 290 296 298 296 297 295 299 300 295 290 291 294 295 289 288 290 285 283 282 282 280 278 278 281 283 286 289 289 290 288 289 290 292 293 292 292 291 290 290 290 290 290 290 289 289 289 289 288 288 288 289 289 289 289 289 289 289 289 288 288 288 288 288 288 288 288 288 288 288 287 287 287 287 287 287 286 286 286 285 284 284 283 283 283 283
288 286 294 295 296 296 296 298 299 298 285 288 292 287 291 294 292 286 281 282 281 281 279 282 281 284 289 288 288 288 288 288 290 291 291 290 290 290 289 289 289 290 290 289 289 289 289 288 288 288 288 288 288 288 289 289 289 289 288 288 288 288 288 288 288 288 288 288 287 287 287 287 287 287 286 286 286 286 285 285 284 284 283 283 283 284
288 290 290 292 291 293 291 294 298 297 297 291 285 289 293 295 293 287 283 282 280 280 282 281 280 280 282 282 286 286 286 287 288 288 290 290 289 289 289 289 289 290 290 289 289 289 289 288 288 288 288 288 288 288 288 289 288 288 288 288 288 287 287 287 287 288 287 287 287 287 287 287 287 287 286 286 285 285 285 284 284 283 283 282 283 283
298 288 288 292 292 292 294 295 295 297 296 291 289 296 290 284 284 287 285 280 279 278 280 279 281 282 284 285 283 285 287 287 287 287 288 289 289 289 289 289 290 290 289 289 288 288 288 287 287 287 287 287 287 288 288 289 289 288 287 288 288 287 287 287 288 288 288 288 288 288 287 286 286 286 286 286 286 285 284 283 283 282 282 282 281 281
295 287 285 288 291 292 292 292 285 288 295 294 294 289 293 287 284 283 286 283 282 280 277 280 279 280 286 288 287 289 289 289 288 288 289 290 290 290 290 290 289 289 289 289 289 289 288 288 287 287 287 287 287 287 288 288 288 288 288 288 287 287 287 287 287 287 287 287 287 287 286 286 286 286 285 285 284 284 283 282 282 281 280 280 281 279
290 292 285 285 291 291 283 287 287 290 287 285 285 284 288 286 287 286 285 285 282 278 278 279 278 281 288 292 291 291 292 291 289 289 289 290 291 291 291 290 290 290 289 289 289 289 288 287 286 286 286 286 286 287 287 288 287 287 287 287 287 287 287 287 287 287 287 287 286 286 285 285 285 285 284 284 283 283 282 282 281 279 279 279 279 278
290 288 287 283 283 283 287 293 293 294 293 291 289 287 290 287 284 281 281 286 286 283 279 279 280 282 290 291 292 294 293 293 292 291 290 291 291 291 292 291 291 290 290 290 290 289 288 287 287 286 285 284 285 285 286 287 287 286 286 287 287 287 286 286 286 286 286 286 286 285 284 284 284 283 283 282 281 281 280 280 279 279 278 278 278 278
295 289 288 284 284 287 290 292 293 291 290 292 292 289 292 289 287 284 280 280 283 285 280 279 276 282 288 290 289 290 292 294 293 292 291 292 292 292 292 292 291 291 291 291 290 289 288 287 287 286 285 285 285 285 285 286 286 286 286 285 285 285 285 286 286 286 286 285 284 283 283 282 282 282 281 280 280 280 279 279 279 279 278 277 277 277
294 288 286 286 288 289 288 292 292 292 292 289 288 289 290 288 290 288 287 284 282 282 280 280 279 282 287 289 288 289 288 291 292 292 292 292 292 292 292 292 291 291 291 290 290 289 288 286 286 285 284 284 284 284 285 285 285 285 285 285 285 285 285 285 285 285 284 284 283 282 282 281 281 281 280 280 279 279 278 278 278 278 278 277 277 276
290 288 287 285 284 283 285 287 287 288 288 285 285 289 291 292 291 288 286 286 282 284 283 281 278 282 286 287 286 287 288 290 290 292 293 292 292 292 292 292 292 291 291 290 289 289 287 285 285 285 285 285 284 284 284 285 285 285 284 284 284 284 284 285 285 284 284 283 282 281 281 281 280 280 279 279 279 278 278 278 278 278 277 277 277 276
291 287 287 283 281 279 279 278 280 281 284 286 286 286 289 290 289 287 285 286 282 286 284 282 283 284 287 288 290 287 287 287 287 289 291 292 293 293 293 293 292 291 291 290 289 287 287 286 286 285 284 284 284 284 284 284 284 284 284 284 284 284 284 284 284 284 283 282 282 281 280 280 280 279 279 279 278 278 278 278 278 278 277 277 276 275
288 288 289 289 287 285 287 284 285 287 284 283 285 287 288 290 291 289 288 285 283 285 283 287 287 282 284 287 287 287 286 287 288 288 289 290 291 292 293 293 292 292 291 290 290 288 286 285 285 285 284 284 283 283 284 284 284 284 284 284 284 284 284 284 284 283 283 282 281 280 280 280 280 279 279 279 278 278 278 278 277 277 277 276 274 273
287 287 288 289 289 290 286 284 287 289 283 285 285 286 288 288 289 288 286 285 288 285 283 289 288 284 285 286 287 286 286 289 289 288 288 289 290 291 293 293 293 291 290 289 288 287 286 286 285 284 284 284 283 283 283 284 284 284 284 284 284 284 284 284 284 283 282 281 281 280 280 280 279 279 279 278 278 278 278 277 276 276 276 275 273 273
287 286 288 288 288 290 289 286 287 286 287 287 287 287 286 288 288 287 287 289 288 286 285 289 289 287 287 288 289 289 290 290 290 290 290 291 291 291 291 291 291 291 289 289 289 289 287 286 286 285 284 284 283 283 283 283 284 284 284 284 284 284 284 284 284 283 283 282 281 281 281 281 280 280 279 279 278 277 276 275 275 274 274 274 274 274
288 286 287 288 287 288 289 288 286 285 285 285 286 288 289 287 287 288 288 290 289 288 290 288 287 286 290 289 291 292 293 292 292 292 291 291 291 291 291 291 290 290 289 289 289 289 288 288 287 286 285 284 284 283 283 283 284 284 284 284 284 284 284 284 283 283 282 281 281 281 281 281 280 279 278 277 277 276 275 275 275 275 274 274 273 272
289 286 289 287 285 286 288 288 285 284 284 286 287 287 287 287 287 288 289 289 289 289 290 289 287 287 292 292 291 292 292 291 291 291 292 293 292 291 291 290 290 290 290 289 288 288 288 288 287 286 285 285 284 284 284 284 284 284 283 283 284 284 284 284 283 282 282 282 282 281 281 280 279 278 277 277 276 276 276 275 275 274 273 272 271 271
288 285 286 286 283 284 287 287 286 285 284 285 285 287 286 285 285 287 286 289 287 287 288 288 286 287 290 291 291 290 290 291 291 292 292 292 293 291 291 290 289 289 289 289 288 288 288 287 287 286 286 286 285 284 284 283 283 283 283 284 284 284 283 283 283 282 282 282 281 281 280 280 279 278 278 277 276 276 275 274 274 273 273 272 271 270
286 286 284 284 282 283 282 283 284 283 284 282 283 287 288 288 288 288 288 289 289 290 287 285 287 289 289 289 288 289 289 291 292 293 292 292 291 290 290 290 290 289 289 289 288 288 287 287 287 287 287 286 286 285 284 284 283 283 284 284 284 283 283 283 282 282 282 282 281 280 280 280 278 278 277 277 276 275 275 274 273 272 271 270 270 270
286 286 285 287 281 281 279 283 284 282 275 280 287 291 291 288 288 286 286 287 286 290 288 290 289 288 289 288 289 288 288 288 292 294 295 295 291 289 289 289 289 289 289 289 288 288 287 287 287 287 287 287 287 286 285 285 284 284 284 284 283 283 283 282 282 282 281 282 281 280 280 279 279 278 277 277 276 275 274 273 273 272 270 270 270 269
286 286 285 286 283 278 280 282 280 274 278 286 284 286 290 292 291 289 289 288 288 289 289 288 287 287 288 290 291 292 293 293 292 292 292 291 292 291 290 289 289 289 289 289 288 288 288 288 288 287 286 286 287 286 285 284 284 284 283 283 283 283 283 282 282 281 281 281 281 280 279 279 278 278 277 276 275 273 273 272 271 270 270 269 269 269
285 285 285 284 283 281 277 280 273 277 283 284 284 283 284 287 287 288 287 287 287 288 289 288 290 291 292 291 291 292 292 288 286 285 286 287 291 292 290 290 289 288 288 289 289 289 289 288 288 287 287 287 286 286 285 285 284 283 283 283 283 282 282 282 282 281 281 281 280 279 279 278 278 278 276 275 273 272 272 270 269 269 269 268 268 267
287 287 286 282 284 276 279 278 280 284 284 283 279 282 285 283 284 285 282 286 289 288 288 289 289 290 290 289 289 283 284 286 287 287 284 286 287 287 289 289 289 288 289 288 288 288 288 288 288 287 286 285 285 285 285 284 283 283 282 282 282 282 282 281 281 281 281 280 279 278 279 279 279 277 275 274 273 272 271 270 269 268 269 268 269 268
287 285 286 283 281 281 279 276 277 278 276 282 282 284 289 289 289 290 287 284 287 288 290 290 289 290 289 288 286 284 285 285 284 287 287 286 287 286 286 287 286 287 286 286 285 285 286 286 286 286 287 285 285 285 284 283 283 282 282 282 281 281 281 281 281 281 281 280 279 279 279 279 278 277 275 273 271 270 271 270 268 268 268 268 267 267
284 285 284 284 282 280 279 276 276 275 278 281 281 282 286 285 288 287 284 280 285 287 288 289 289 289 288 287 283 285 285 283 284 287 284 285 285 285 286 285 283 284 285 285 285 284 283 284 285 285 285 284 284 283 283 283 283 282 282 281 281 281 280 280 281 281 281 281 281 280 280 279 278 276 273 272 271 270 270 269 268 268 267 266 266 266
282 283 283 281 280 282 279 278 275 280 278 280 280 282 283 286 288 285 273 275 284 286 288 289 289 288 287 286 284 285 285 283 285 286 283 283 284 285 285 285 283 283 282 282 281 282 282 282 283 283 283 284 284 283 283 283 283 282 281 281 280 280 280 280 281 282 282 282 281 280 278 277 276 275 273 272 271 269 269 268 267 266 266 265 265 264
280 280 282 278 281 281 282 279 281 281 284 281 280 281 283 286 286 277 274 281 283 284 286 288 288 287 286 284 285 285 287 287 285 283 281 281 282 282 282 282 282 282 282 281 281 283 282 281 282 283 283 283 283 282 281 282 282 281 281 280 279 280 281 282 282 281 281 279 277 276 275 275 275 274 273 272 270 269 268 267 267 265 264 264 264 263
280 280 280 282 279 279 281 278 279 282 285 282 281 283 284 285 275 276 283 281 283 283 284 286 285 286 286 285 286 287 286 281 281 280 280 280 280 280 279 279 279 280 280 281 282 282 280 280 280 281 281 281 281 280 280 281 281 281 279 279 279 280 282 281 279 279 278 277 277 276 275 274 273 273 271 269 268 267 266 265 265 265 263 263 263 263
280 279 277 279 281 281 281 278 278 274 283 282 283 282 283 280 281 283 281 280 282 282 283 284 285 285 286 284 285 285 282 279 279 279 279 280 279 279 279 279 279 279 280 280 280 280 281 280 280 280 280 279 278 279 280 280 280 279 279 279 280 281 279 277 277 277 277 277 275 274 273 272 271 270 268 267 267 266 265 264 263 262 262 262 261 261
285 278 278 279 283 276 278 276 277 283 282 284 285 281 282 284 283 282 283 281 282 282 282 283 283 283 283 284 283 282 282 280 280 278 279 279 278 278 278 278 278 278 278 279 279 280 280 279 279 279 278 277 276 278 279 280 279 278 278 279 281 277 275 276 276 276 276 275 274 272 270 269 268 267 266 266 265 265 263 262 261 261 261 261 261 260
285 281 283 279 285 281 279 282 281 281 283 283 282 282 284 285 283 284 284 284 281 281 281 282 282 282 281 281 280 280 281 280 279 279 279 278 278 278 278 279 279 279 279 279 279 280 279 280 279 278 276 276 275 276 277 278 279 277 278 280 276 277 276 275 275 275 275 273 271 270 268 266 266 265 264 264 265 264 263 261 260 260 260 260 261 260
281 282 281 282 280 284 281 282 282 281 282 281 282 283 283 282 282 282 283 282 282 280 281 281 281 281 280 280 280 280 279 279 279 279 279 278 278 278 278 278 278 278 278 278 277 279 279 277 276 276 277 275 274 275 275 276 277 277 279 277 276 275 275 274 274 274 274 272 270 268 266 265 263 262 262 263 263 264 263 262 261 261 261 260 261 261
280 279 280 278 281 281 277 279 279 281 282 282 282 282 281 281 282 281 282 282 281 281 281 281 281 280 280 280 280 279 279 278 278 278 278 278 278 278 278 278 278 279 279 279 279 279 277 276 277 277 276 276 273 274 274 275 276 279 276 276 276 274 273 273 273 273 271 270 268 265 265 265 263 262 261 261 262 262 262 262 261 262 262 261 261 261
277 279 278 278 279 278 279 277 277 277 278 280 281 281 281 282 282 281 281 280 279 279 280 279 279 280 279 279 279 279 279 278 278 278 278 279 279 279 278 278 278 277 278 279 277 277 275 276 276 275 275 277 277 274 274 274 276 277 274 272 274 273 272 272 272 272 271 269 267 265 265 265 264 262 261 261 262 262 262 261 262 263 263 262 262 262
280 282 273 278 277 278 275 277 278 278 278 279 280 280 281 283 281 280 279 279 278 279 279 279 279 279 279 278 279 279 278 279 278 278 278 278 278 278 279 279 278 278 278 278 277 277 277 276 276 276 276 278 277 274 273 273 274 271 273 272 270 272 272 272 270 270 268 267 266 265 264 264 263 263 262 261 261 262 263 263 262 263 263 262 264 264
279 276 277 278 274 275 278 276 277 275 275 278 279 281 281 281 281 280 279 279 278 278 278 279 279 279 278 278 278 278 278 277 278 278 278 278 278 278 278 278 278 278 277 277 276 276 275 274 276 275 275 276 274 273 273 272 273 271 271 269 267 270 272 271 269 269 268 267 266 265 263 264 263 262 262 261 261 261 261 265 267 265 263 263 268 270
279 279 279 277 278 276 279 279 281 282 280 280 281 281 281 281 280 279 279 279 279 279 279 278 277 278 277 277 277 278 278 278 278 278 277 277 278 279 279 278 278 277 277 276 275 273 274 274 273 272 272 275 272 274 274 274 273 271 270 270 268 269 268 268 269 268 267 266 266 265 264 264 263 263 262 261 261 261 261 260 265 270 271 269 269 271
Wind_Speed
5 4 5 6 9 8 6 9 9 8 7 7 2 2 5 4 4 2 4 3 1 0 5 6 5 5 6 7 10 9 6 5 5 6 6 5 6 6 5 5 5 4 5 4 4 3 3 3 3 3 2 2 3 4 4 4 5 5 5 5 7 5 5 5 6 5 6 7 8 9 9 10 8 8 9 10 9 9 9 10 10 10 9 10 10 10
1 6 8 10 10 6 7 7 9 9 8 7 3 4 5 2 6 5 2 3 1 2 2 3 4 7 7 5 9 6 7 8 8 7 7 7 6 6 6 6 5 5 4 4 4 4 3 3 3 4 2 2 4 4 5 4 5 4 4 6 6 6 7 7 7 6 7 7 6 8 7 9 7 8 9 9 9 9 9 10 10 9 9 10 10 9
4 10 8 10 7 7 8 7 5 7 7 6 4 3 3 5 5 4 6 2 2 2 5 5 10 9 10 10 8 11 12 9 9 9 8 9 8 6 6 6 6 6 5 4 4 4 3 3 3 3 3 3 3 4 4 3 5 4 5 6 6 6 6 6 6 6 8 7 7 8 7 9 10 8 8 9 7 8 10 10 9 9 10 10 10 10
6 7 13 9 7 8 7 3 3 2 1 2 2 2 6 2 3 3 0 1 3 3 2 3 6 6 6 5 6 10 10 5 3 3 4 7 9 7 7 7 7 7 7 6 5 5 5 4 3 3 3 3 3 4 4 3 5 4 5 6 7 7 7 7 7 9 9 10 10 10 10 10 10 8 8 9 8 9 11 11 9 9 9 10 10 10
12 3 2 12 9 8 7 4 3 3 4 4 5 6 4 4 6 6 1 2 3 3 3 5 8 9 8 10 5 6 3 4 2 3 2 3 3 4 5 6 6 8 8 7 7 6 5 5 4 4 4 3 4 3 2 3 4 4 6 7 7 7 8 8 9 10 10 11 11 10 10 9 9 8 7 8 9 8 8 9 10 9 9 10 10 10
13 9 1 7 8 5 4 5 5 4 5 5 7 9 6 6 6 5 1 4 1 3 5 4 4 4 11 16 13 5 2 2 3 4 4 4 3 5 5 5 4 6 6 7 7 7 6 5 4 5 4 4 4 3 2 3 4 4 6 7 7 8 7 7 7 8 7 8 9 6 7 8 7 8 7 8 8 7 8 8 6 9 9 8 9 8
4 2 7 6 6 5 5 5 4 7 6 4 3 3 10 8 5 3 5 1 3 3 2 3 6 7 5 6 7 8 9 7 4 6 6 6 7 6 6 6 5 6 6 6 6 6 7 6 6 5 4 5 5 3 2 3 5 5 5 5 6 6 5 4 5 4 5 6 6 8 7 7 8 10 6 5 6 7 6 7 8 7 7 8 9 8
5 3 1 3 5 6 5 7 5 10 4 4 1 2 2 1 2 3 3 5 6 2 1 2 3 6 7 7 2 6 7 5 6 7 7 8 9 9 7 8 8 7 6 6 7 7 6 6 6 6 6 5 5 3 3 4 4 5 5 6 6 5 5 4 6 8 8 9 9 10 9 7 8 8 9 7 7 6 6 8 8 7 7 7 7 8
5 5 5 4 5 6 8 6 4 8 5 1 1 3 1 1 1 2 2 4 3 1 6 4 3 2 7 4 8 9 5 7 11 11 11 10 10 10 9 9 10 9 8 8 8 8 8 8 7 6 6 6 5 4 4 4 4 5 5 6 6 6 6 6 7 8 8 9 10 9 9 10 7 8 8 6 6 6 6 8 6 7 7 7 7 7
2 1 4 8 7 8 3 2 2 7 8 1 2 4 3 3 1 1 1 1 3 4 9 4 6 6 14 4 5 3 4 8 11 13 13 12 12 11 11 9 10 9 9 7 7 7 6 6 7 6 6 6 5 4 4 4 4 5 5 7 7 7 6 6 7 8 8 9 9 9 8 11 10 7 7 6 7 6 5 7 6 6 6 6 7 7
2 3 3 0 3 1 4 2 4 2 3 5 4 4 2 1 0 1 0 1 2 10 8 5 8 8 10 5 9 9 8 11 8 4 7 9 9 10 9 11 10 10 9 9 8 7 7 5 6 7 7 6 5 4 4 4 4 5 5 6 7 6 6 6 7 8 9 8 8 9 9 9 10 9 8 8 7 6 6 7 6 6 6 6 6 6
2 2 0 1 3 3 3 3 5 3 2 5 2 2 1 1 2 0 1 3 4 11 5 11 9 10 11 1 7 12 7 11 10 11 14 14 14 13 11 11 11 10 9 9 9 8 8 7 6 6 7 6 5 5 4 4 4 5 5 7 8 6 6 6 7 8 8 8 7 7 8 9 8 8 7 8 8 7 7 6 7 6 6 6 6 6
7 5 2 2 5 5 3 5 3 1 1 2 4 4 6 2 2 2 3 5 9 10 1 5 11 7 18 12 5 1 2 1 4 10 15 16 14 13 11 12 10 9 8 9 9 8 8 8 8 7 7 7 6 6 5 5 5 5 6 7 9 7 6 7 7 9 8 8 7 7 7 7 7 7 7 7 7 5 7 7 7 7 6 6 6 6
5 6 9 5 2 5 7 8 3 0 5 5 7 7 6 4 5 6 4 3 4 3 1 0 1 7 2 5 13 15 1 2 4 1 10 14 15 14 12 11 10 9 9 8 8 8 7 8 7 6 7 6 6 6 6 6 5 5 6 6 8 8 7 7 8 8 8 7 7 7 7 7 7 7 7 6 8 7 7 7 7 6 6 6 6 6
3 2 8 9 5 9 12 14 13 5 8 11 6 9 9 9 2 4 5 9 6 3 1 2 5 6 4 6 6 4 2 3 3 5 8 8 8 7 8 8 9 9 8 8 8 8 8 8 7 7 7 7 6 7 6 5 5 5 6 7 9 9 7 8 7 7 8 7 7 6 7 7 7 7 7 7 6 7 7 6 7 6 6 6 6 6
12 8 3 16 1 12 13 9 5 5 3 5 6 4 4 8 1 8 0 0 1 1 2 2 6 2 5 0 2 1 4 4 3 7 11 10 9 10 10 11 10 10 10 9 9 9 8 8 7 7 7 6 7 7 6 6 6 6 6 7 8 9 8 8 8 7 8 7 7 6 7 7 7 7 7 7 6 6 6 7 7 7 6 6 6 5
3 5 4 4 2 12 10 5 6 9 6 5 5 9 9 1 2 4 1 0 0 3 9 4 5 6 1 1 2 3 4 2 1 6 8 9 9 10 10 10 10 10 10 9 9 9 9 8 7 7 7 7 7 7 6 6 6 7 8 9 9 8 7 8 7 8 7 7 8 7 7 7 7 7 7 8 8 7 6 7 7 7 6 6 5 5
6 3 2 3 3 2 1 2 1 2 1 7 5 6 3 3 3 2 6 1 3 9 8 8 9 3 3 9 4 4 4 3 2 4 7 8 8 10 9 10 11 11 9 7 7 7 8 8 8 7 6 6 7 7 7 7 6 6 7 9 11 10 10 8 8 8 8 9 8 8 7 6 7 7 7 7 8 7 8 6 6 6 6 5 4 5
3 6 3 1 3 2 3 1 2 1 4 2 4 1 8 4 4 3 1 9 5 7 5 3 6 7 12 10 3 6 9 9 7 5 7 11 11 11 10 9 8 8 8 10 10 10 9 10 9 8 8 7 6 7 6 6 7 7 6 7 9 11 9 9 8 7 7 7 7 6 8 8 7 6 6 6 7 6 7 7 6 6 6 5 4 5
2 6 1 3 1 1 1 4 9 6 1 1 1 2 2 2 1 6 8 1 3 9 2 7 5 10 8 5 14 14 14 13 12 10 12 13 14 13 11 12 13 13 12 11 11 10 10 10 9 9 10 10 10 9 8 7 7 8 8 9 8 7 8 8 9 8 9 7 7 8 7 6 6 6 6 6 7 7 6 6 6 6 5 5 5 5
3 2 5 1 4 5 2 5 9 12 12 4 1 3 1 1 1 2 2 6 4 2 4 5 7 5 3 2 14 15 16 16 18 17 14 12 12 11 11 13 13 13 13 13 12 12 11 10 10 8 7 7 7 6 7 7 9 8 7 8 9 11 10 9 9 8 7 8 8 8 8 8 7 7 6 7 6 7 6 5 5 5 4 5 5 5
3 4 9 4 1 6 3 5 11 9 13 13 14 14 15 10 6 4 10 4 6 3 6 3 14 2 1 3 4 12 12 14 17 18 14 12 12 12 11 11 12 12 11 12 12 10 11 10 10 8 7 6 7 8 9 8 7 7 8 8 9 9 9 10 9 8 8 7 8 8 8 7 6 7 7 7 6 6 6 5 5 4 4 5 4 4
2 1 1 5 6 7 4 1 2 2 2 3 6 6 7 6 4 6 8 3 2 7 2 2 3 8 3 2 5 5 2 9 11 11 12 12 12 11 10 11 10 10 12 13 12 11 10 10 10 10 11 10 10 9 8 8 8 8 8 8 8 9 8 8 9 8 8 8 8 8 7 8 7 7 7 8 6 6 6 5 4 4 5 5 4 4
7 1 1 3 2 1 2 1 1 1 0 3 4 2 6 12 13 13 9 3 5 2 3 3 5 6 2 4 5 4 4 5 6 7 8 8 8 9 9 10 11 10 8 7 8 8 9 8 8 9 10 10 10 10 10 9 7 7 7 8 8 9 9 8 8 8 8 8 8 8 8 8 8 8 8 7 7 7 6 5 4 4 5 5 4 4
6 3 4 1 2 0 0 0 1 1 1 4 3 7 9 7 7 4 1 1 3 10 8 7 15 6 2 4 4 4 5 8 7 5 8 9 7 9 9 9 9 9 9 10 11 11 10 9 12 13 12 11 10 8 8 10 8 8 8 8 9 8 8 8 8 9 8 9 10 9 9 8 8 8 8 7 7 7 6 6 5 4 5 5 4 4
3 3 8 7 11 11 8 6 7 8 10 3 3 4 6 11 11 7 10 10 8 11 11 6 10 2 1 1 0 1 4 6 5 6 5 6 9 10 9 9 10 10 11 11 10 10 14 14 11 9 10 10 10 10 9 9 8 8 7 8 7 9 8 8 8 9 9 9 10 9 9 9 8 8 8 8 7 7 7 6 5 5 4 5 5 4
3 3 8 13 12 13 8 2 2 3 5 8 7 12 13 11 11 7 5 5 16 7 5 15 10 0 3 2 2 2 3 6 5 4 6 6 5 6 6 7 8 9 10 13 13 11 7 7 12 13 11 10 9 9 9 10 9 9 9 8 8 8 9 9 9 9 10 10 10 10 10 9 9 8 8 8 8 7 7 6 6 6 5 5 4 4
2 5 12 12 13 15 1 2 0 1 4 7 8 12 13 12 14 14 13 19 5 2 15 14 5 7 8 5 5 4 2 3 5 4 4 4 5 6 6 6 7 6 6 7 8 11 14 13 11 11 12 11 11 10 9 9 10 11 11 11 10 9 9 9 10 10 10 10 10 9 10 9 8 9 8 8 8 8 7 7 6 6 5 4 4 4
4 8 10 9 16 16 7 2 1 1 1 1 6 10 14 16 14 19 22 19 7 12 17 4 11 13 7 8 5 5 6 6 6 8 7 6 6 5 6 6 6 7 7 9 11 11 11 12 13 13 12 12 11 12 12 11 10 9 8 8 9 10 11 10 11 11 11 11 11 11 10 9 8 8 8 9 9 8 8 7 6 5 5 4 3 4
2 9 4 5 14 11 12 8 2 3 2 2 5 7 12 16 20 21 20 21 19 14 11 5 1 2 1 6 6 5 5 4 5 7 8 9 9 7 7 6 7 8 9 11 11 11 12 13 12 12 12 11 13 13 12 12 12 13 12 11 11 10 9 10 11 11 11 11 11 10 10 10 9 9 9 9 9 8 8 7 7 7 6 5 4 4
6 4 8 3 5 12 13 7 4 3 4 12 12 10 10 10 13 16 18 17 13 12 17 14 5 9 2 2 2 1 4 5 6 5 7 7 8 7 7 7 9 10 9 8 8 9 11 12 11 11 12 13 14 15 15 14 12 10 10 9 11 11 10 11 11 11 12 12 11 11 11 10 10 10 10 9 9 8 9 9 7 7 6 5 5 5
5 4 3 4 6 11 11 11 11 3 2 9 17 20 16 4 5 12 15 14 12 18 20 16 12 15 3 3 3 2 5 6 6 5 5 3 5 6 8 10 10 10 9 9 10 10 9 10 11 12 14 15 14 13 12 11 11 11 12 12 12 12 10 11 12 13 12 11 11 11 12 11 11 11 10 10 10 10 7 8 7 6 6 6 5 5
8 4 5 5 6 11 2 3 4 4 1 7 22 27 14 13 13 9 9 10 15 13 11 12 18 2 7 5 6 1 4 4 5 4 3 4 6 9 11 12 11 8 9 10 10 9 10 11 12 12 11 9 10 12 13 13 11 13 14 14 13 10 11 13 13 12 12 12 12 12 12 11 12 11 10 9 9 8 7 8 7 7 7 7 5 5
6 7 6 5 5 1 3 5 7 4 5 18 3 2 14 19 21 16 15 11 3 9 12 8 4 8 7 6 8 6 3 3 3 6 8 10 10 9 8 7 7 8 8 8 8 9 8 7 7 9 11 13 13 14 13 13 15 15 13 13 10 12 12 13 12 12 12 12 12 12 12 12 11 11 10 9 9 8 8 8 8 7 5 5 5 6
10 8 7 4 3 3 4 7 5 9 18 2 4 5 3 13 14 18 13 7 11 11 8 3 4 7 9 9 8 8 8 8 9 10 10 7 9 10 12 10 7 8 9 8 8 8 9 10 9 9 8 9 11 10 9 10 11 9 9 10 12 12 12 12 12 12 12 13 12 12 11 12 12 11 10 10 10 9 9 8 6 7 6 7 7 7
8 10 3 3 3 3 2 6 5 10 3 2 3 4 2 3 2 6 8 7 7 10 9 9 10 7 6 6 5 7 9 7 2 3 3 3 8 10 8 8 8 7 7 8 9 9 9 9 11 11 11 8 7 8 9 11 9 9 10 9 11 11 11 11 12 12 11 12 11 11 11 12 11 10 9 10 10 10 9 8 9 9 7 6 5 4
9 7 6 6 5 6 6 9 11 6 10 2 3 1 5 4 6 10 8 12 13 9 10 9 9 8 5 5 6 4 4 2 2 7 4 6 5 4 6 6 7 8 7 6 7 8 8 8 8 8 6 6 8 8 8 7 8 9 8 9 9 10 10 11 12 13 13 11 10 11 12 13 13 11 11 10 11 11 10 10 8 7 6 7 6 7
3 10 6 8 5 7 4 3 2 5 13 8 3 5 8 4 7 9 7 6 2 7 10 10 12 11 7 6 6 5 4 3 6 11 7 7 6 5 3 3 3 3 3 4 3 3 4 5 4 5 7 6 7 8 6 6 8 8 9 9 9 11 11 12 14 13 12 12 11 13 14 14 13 12 12 11 12 12 9 7 5 8 7 9 8 8
1 1 2 7 3 6 6 7 7 9 7 4 4 3 6 4 7 6 4 7 3 8 9 11 13 10 9 9 6 7 6 7 11 10 3 6 5 5 6 4 4 4 4 6 7 6 5 4 5 5 5 6 6 6 7 7 9 9 9 9 9 10 12 13 14 14 15 16 15 14 12 11 11 11 12 12 11 11 11 10 10 7 6 6 6 6
4 3 4 3 6 6 7 6 9 4 3 1 2 1 5 6 8 7 3 7 2 10 9 10 11 9 6 8 10 9 9 9 12 5 3 5 5 4 6 6 5 4 4 4 3 5 5 5 5 4 5 6 7 6 7 7 9 9 10 10 9 11 13 15 16 15 14 11 9 9 9 9 11 11 12 12 10 9 9 7 7 8 7 6 6 6
5 3 7 10 7 7 8 6 2 4 1 3 5 2 4 5 6 5 9 3 2 3 3 7 8 6 8 9 10 8 10 6 2 4 4 5 6 4 2 2 4 6 6 5 4 5 5 4 6 7 7 5 5 5 6 6 7 8 8 8 9 13 15 16 12 9 9 7 7 8 9 8 10 12 10 9 10 9 8 8 8 8 8 7 6 6
3 3 1 4 8 9 7 4 5 2 2 5 0 7 5 7 4 8 1 0 6 5 1 4 5 5 8 11 9 8 3 4 5 3 4 4 4 4 4 4 5 4 3 4 6 5 4 4 4 3 3 4 5 6 6 7 7 7 6 7 11 15 14 7 6 6 6 8 9 9 10 10 8 8 9 8 9 10 8 6 7 8 8 7 7 8
10 8 7 9 4 1 2 6 2 7 1 6 8 3 3 4 4 4 3 2 1 4 5 2 5 5 7 6 5 4 5 4 5 4 4 4 4 5 6 5 5 6 6 5 4 4 6 5 5 5 5 4 5 5 5 7 7 6 7 9 15 12 5 5 5 6 7 8 9 9 10 9 10 9 8 9 9 11 10 8 8 7 7 8 7 7
4 5 3 4 4 5 7 8 6 2 6 6 7 8 5 4 1 4 7 2 1 3 4 4 1 3 5 7 6 5 3 4 2 4 3 2 3 3 3 4 4 4 3 3 4 6 5 4 4 4 4 4 4 5 6 8 8 7 7 13 11 3 4 5 6 7 7 8 8 8 8 8 8 8 7 9 9 9 10 9 8 7 7 7 8 7
4 7 2 5 4 7 5 2 1 2 7 5 1 1 3 3 3 1 4 6 6 2 2 4 5 4 5 5 4 4 2 4 4 4 5 4 4 4 5 6 6 7 7 7 6 5 5 7 6 5 4 4 5 4 6 6 8 7 10 10 4 5 6 6 6 8 8 8 8 9 7 7 8 8 8 8 10 11 9 8 9 8 6 7 7 7
3 2 0 3 4 1 2 3 3 2 4 2 1 1 4 4 1 2 6 4 2 4 5 5 5 5 4 4 5 1 3 3 3 3 3 3 4 4 4 3 3 4 5 5 4 7 6 4 4 5 6 5 5 5 5 6 7 9 11 5 5 5 6 7 7 8 9 8 8 8 9 9 6 6 7 8 8 9 9 11 11 9 9 8 8 8
3 2 1 3 3 4 4 3 3 3 4 3 2 1 3 2 1 1 2 2 3 4 3 1 4 5 5 4 4 4 2 4 4 4 4 3 4 5 6 7 6 7 7 7 7 7 6 6 5 6 7 7 6 7 6 6 7 10 5 5 5 6 6 7 8 8 6 8 7 7 9 11 9 8 7 7 6 6 7 7 8 9 9 9 9 9
3 3 2 3 1 2 2 4 2 1 0 0 2 3 2 2 1 2 2 2 3 3 4 2 3 2 4 3 4 4 4 3 4 4 4 5 5 5 5 6 7 5 6 6 5 6 5 6 7 7 6 8 7 6 6 6 9 8 4 3 5 6 7 8 9 9 8 9 8 8 9 9 10 10 8 8 9 9 8 8 9 10 12 13 12 11
4 6 4 4 4 2 3 1 0 2 1 3 2 3 3 4 5 3 3 3 2 3 1 1 1 2 3 3 3 4 2 2 4 5 5 4 5 5 6 6 6 7 6 5 6 7 9 7 8 8 7 9 5 5 5 7 7 4 5 4 4 6 8 8 7 7 7 7 7 8 8 8 9 9 9 8 8 9 9 11 12 12 8 5 7 10
6 5 3 5 2 5 8 6 6 3 2 3 5 9 7 4 5 5 4 3 3 3 3 3 1 0 2 3 4 4 5 4 4 4 5 5 6 6 5 6 5 5 5 4 4 5 6 6 7 6 6 6 2 4 5 6 7 5 4 4 4 5 8 7 7 6 7 8 8 7 8 7 7 8 8 9 9 8 7 7 10 7 7 7 10 14
6 5 7 6 7 5 3 8 10 7 4 5 8 7 5 5 6 6 6 6 6 5 4 4 3 1 2 4 3 5 5 6 6 5 5 5 5 6 6 6 5 5 5 3 4 4 5 6 5 4 5 6 5 5 6 7 6 5 5 6 5 6 5 5 6 6 6 7 8 9 8 7 7 7 7 6 6 6 7 4 7 14 15 10 10 13
Wind_Direction
132 185 190 200 221 225 209 212 231 238 257 276 325 294 276 275 267 299 140 129 283 234 221 237 247 254 265 177 189 185 180 207 208 169 162 166 162 166 168 158 148 136 124 119 112 105 118 99 93 90 97 113 79 78 67 62 56 40 55 60 64 55 49 73 86 77 77 82 86 73 68 76 67 64 66 61 54 54 51 49 50 47 45 44 43 39
66 211 222 222 230 226 245 226 217 241 258 267 275 287 277 254 269 265 209 166 108 137 257 247 269 263 255 247 172 165 178 203 204 179 180 176 171 167 163 149 151 116 122 133 130 133 103 111 116 107 78 79 94 78 81 73 72 62 54 63 70 66 63 59 59 69 66 59 72 92 80 85 74 69 65 66 54 56 54 51 51 51 49 50 49 44
218 222 227 230 232 243 253 270 271 224 230 242 226 252 267 255 263 276 96 157 116 93 262 251 259 262 261 253 163 178 187 201 203 188 182 170 170 163 162 152 144 129 143 159 137 130 119 118 110 104 107 85 89 87 89 84 82 69 63 65 65 61 66 61 63 77 86 85 82 90 95 89 88 68 74 76 74 65 63 57 53 52 52 50 50 48
246 237 234 236 230 235 241 220 272 325 277 275 252 218 239 267 285 276 159 140 213 187 282 343 311 279 282 280 179 192 187 189 153 146 143 158 167 163 169 162 151 155 149 156 153 154 151 144 131 123 110 117 105 91 88 97 103 95 85 85 81 78 77 79 74 86 89 93 93 85 91 86 86 94 79 77 69 64 62 57 53 51 52 52 54 50
222 219 194 196 219 233 230 205 190 199 250 210 222 239 243 218 230 219 228 227 150 253 245 287 282 265 237 241 213 206 168 102 130 100 85 28 92 121 122 136 158 158 155 153 155 146 149 151 144 130 129 115 98 90 78 95 95 99 97 96 97 95 95 96 98 95 101 102 97 98 96 88 87 72 70 72 62 59 62 64 50 47 47 49 51 48
250 246 84 204 192 188 207 234 188 186 242 250 226 211 226 235 254 258 233 114 317 296 193 174 317 255 211 223 214 150 73 186 143 158 191 170 146 118 135 146 136 142 150 150 154 158 157 142 125 126 135 118 106 90 69 70 92 98 98 101 102 105 109 115 112 115 113 106 113 111 95 93 88 79 70 70 80 72 64 68 68 56 52 54 56 52
258 172 171 188 168 183 201 214 201 158 226 233 265 219 204 218 250 294 295 12 288 233 320 144 199 276 358 322 185 177 190 200 160 202 201 182 185 174 172 170 161 148 145 145 143 147 140 143 145 140 134 123 107 104 100 86 85 85 87 88 87 86 80 88 115 117 92 86 87 89 92 99 106 108 87 91 84 88 87 81 71 67 57 54 58 53
117 142 83 135 156 167 195 211 201 171 186 250 270 359 89 148 200 229 249 233 244 334 195 185 184 275 286 251 149 153 169 196 207 213 208 195 187 184 182 176 165 164 158 146 150 153 149 150 151 144 131 120 120 116 88 82 85 93 98 98 95 83 77 70 79 89 95 98 97 99 101 101 101 102 112 104 102 94 94 88 80 74 65 58 58 59
150 181 143 181 179 191 212 207 183 173 180 187 269 106 92 130 218 243 224 247 256 21 261 167 206 309 248 222 142 154 161 205 222 212 209 199 185 181 182 170 166 165 164 161 159 162 157 159 146 135 120 118 113 107 105 107 107 100 99 98 92 87 83 75 81 88 91 99 103 107 113 108 101 104 107 107 99 100 96 94 88 82 78 66 58 57
355 183 185 184 184 218 186 19 327 172 204 190 141 64 84 81 49 237 189 265 285 237 243 176 184 227 269 198 147 189 211 216 221 208 202 194 183 177 177 164 160 157 158 161 158 147 144 136 132 128 120 106 113 118 114 112 107 107 104 101 100 97 96 96 95 100 101 104 111 116 120 117 119 118 110 107 104 100 96 91 88 82 77 73 63 53
135 154 129 55 231 191 104 49 27 45 109 148 131 93 55 79 171 32 280 147 329 247 231 185 206 193 283 185 187 170 217 210 201 177 178 177 175 176 174 162 160 157 157 156 151 144 134 123 121 126 124 122 114 123 122 116 116 119 113 113 105 107 104 103 105 104 106 110 119 122 125 123 125 125 124 120 113 107 99 97 91 86 82 77 70 58
135 66 339 267 57 100 112 61 19 343 124 133 135 125 111 316 63 11 276 198 222 262 185 196 208 198 229 268 186 207 210 198 180 182 173 177 181 175 169 163 158 156 156 150 144 141 134 132 138 127 126 135 138 124 123 127 124 121 123 118 113 110 110 109 109 107 109 115 118 118 120 122 124 126 126 124 122 123 115 112 106 98 86 74 71 61
245 194 144 78 286 147 151 89 358 7 342 163 120 111 123 227 85 258 146 223 210 250 306 196 189 235 237 231 269 28 253 162 177 173 172 175 174 168 164 158 155 154 154 152 148 145 148 150 153 143 143 140 148 147 142 141 135 129 127 128 123 122 120 115 115 114 116 117 120 121 118 115 114 114 117 117 112 116 112 110 105 98 93 81 73 65
269 196 192 185 61 229 152 177 156 286 234 174 162 164 150 201 213 243 199 233 263 253 269 193 14 252 6 287 221 228 57 12 13 110 165 167 165 164 156 152 150 155 160 156 152 152 156 154 154 147 148 150 150 150 148 145 142 140 135 134 126 128 125 122 119 119 116 111 110 107 108 109 111 110 108 108 109 109 106 106 104 105 106 104 98 89
259 317 226 133 241 171 196 204 190 174 160 201 183 172 187 181 180 229 193 220 227 222 321 269 99 234 119 241 347 38 52 33 5 64 102 109 122 129 132 135 140 154 162 159 159 159 159 156 156 151 152 155 153 153 150 148 148 143 139 137 133 130 129 124 122 118 114 112 107 106 105 106 107 108 105 103 104 107 107 104 104 101 98 99 98 91
216 239 175 180 120 155 196 214 166 121 138 212 189 196 227 217 104 241 202 332 320 21 294 256 200 205 190 346 133 70 48 32 23 96 113 119 128 132 141 154 162 165 165 161 158 156 155 154 155 149 155 158 155 154 151 153 152 147 146 141 138 136 132 127 123 120 120 116 112 108 109 108 107 107 104 101 98 99 102 106 107 106 103 101 100 90
152 232 103 98 125 172 203 175 202 142 193 202 150 212 201 26 230 281 336 107 117 339 250 147 284 297 304 274 141 154 91 41 9 126 127 134 140 145 157 165 168 168 166 163 162 161 155 151 156 156 157 157 155 155 160 161 159 155 151 147 139 132 128 127 128 125 119 116 113 112 112 115 114 114 117 118 113 110 101 100 99 101 105 104 107 114
148 187 317 105 188 2 5 318 240 27 81 105 197 216 85 78 75 153 250 54 202 244 262 151 211 231 144 263 151 146 150 182 200 173 135 136 143 162 172 174 174 172 167 156 149 153 156 155 156 158 159 160 159 156 157 161 161 155 157 152 141 140 138 137 131 126 127 126 124 125 120 112 114 117 116 116 114 109 111 106 103 105 107 118 121 115
152 263 198 306 61 19 352 56 336 86 31 133 176 306 143 240 235 213 90 247 229 232 262 230 208 230 192 220 129 200 193 191 186 188 155 158 171 178 174 174 170 157 153 162 163 163 165 164 165 166 163 157 157 157 157 159 155 154 155 150 146 145 145 140 134 129 126 128 128 125 122 121 118 117 115 114 111 111 111 113 117 121 122 109 105 99
98 204 318 316 352 149 92 158 192 202 262 63 316 329 263 85 234 151 198 358 144 255 289 275 133 249 189 213 181 195 199 183 170 180 195 181 179 178 174 174 173 172 172 170 170 171 169 166 167 168 166 166 164 163 163 160 157 159 155 148 145 139 137 134 135 137 136 133 126 122 115 111 113 112 113 111 110 110 112 117 117 113 105 110 103 98
275 122 251 187 295 109 208 190 200 175 187 216 178 242 185 190 322 98 314 208 189 230 233 277 277 264 233 198 179 194 190 180 174 188 189 183 182 183 177 176 178 177 174 175 173 171 168 165 166 167 164 159 155 158 158 163 166 162 153 154 154 150 148 144 143 139 137 129 127 124 122 122 119 114 108 105 107 112 113 108 102 104 115 103 101 107
207 175 210 99 262 215 245 177 206 200 200 192 185 200 191 170 183 186 249 143 221 218 243 193 256 268 261 357 247 196 187 174 187 179 177 180 180 179 178 179 180 177 179 174 171 166 165 165 165 161 155 155 158 165 165 166 164 164 163 161 154 152 153 150 147 142 137 130 130 128 126 123 117 112 109 110 107 107 106 105 111 124 106 108 112 103
108 82 144 212 205 215 232 200 229 91 69 237 202 224 184 206 178 199 233 224 144 234 81 213 339 258 249 328 354 9 134 174 174 166 169 172 175 176 177 173 178 180 174 172 169 168 169 169 169 168 168 170 171 169 165 169 172 169 165 159 159 155 160 154 147 142 138 136 133 130 124 120 120 118 117 118 119 116 116 117 123 123 121 116 111 99
64 138 171 304 30 339 355 78 61 45 69 323 278 218 178 206 190 206 208 167 186 214 210 245 251 271 300 50 351 7 28 89 119 147 150 155 158 167 162 159 167 168 171 158 160 161 162 162 159 162 172 171 175 176 176 173 170 167 167 162 157 161 158 151 145 141 138 134 131 130 127 128 129 127 131 130 134 128 127 129 127 127 121 121 110 113
148 227 126 149 279 331 344 2 329 5 143 218 195 206 217 221 210 231 12 23 258 222 195 158 242 242 276 20 354 15 54 77 88 94 141 145 152 154 157 158 163 163 156 159 165 166 159 164 175 181 178 178 177 174 173 176 177 171 169 164 165 164 159 148 146 143 142 139 138 138 137 140 141 141 140 137 137 136 134 134 133 127 124 120 128 134
174 170 151 203 215 228 218 202 208 213 218 212 222 209 208 213 206 155 219 215 231 241 154 214 245 303 339 45 215 49 81 70 64 72 69 131 148 150 158 156 155 160 168 166 162 161 179 184 179 174 179 180 180 176 177 176 176 174 173 174 166 162 157 154 148 149 146 147 146 148 148 150 150 150 146 144 142 142 142 139 138 135 127 129 138 143
177 186 199 209 220 232 239 115 270 110 93 193 206 189 214 211 217 215 232 206 224 224 150 228 220 89 267 226 256 171 119 133 127 104 112 117 122 123 133 146 156 165 168 171 177 179 162 165 185 186 182 179 177 178 179 178 179 180 177 173 171 167 159 158 154 153 153 154 155 154 158 158 159 153 151 150 147 145 145 144 141 135 131 131 140 137
102 203 220 225 236 247 140 168 288 191 177 215 196 205 208 202 206 208 206 224 192 59 251 237 141 203 221 209 221 190 174 124 143 154 147 129 131 132 139 136 132 136 152 153 164 172 184 189 183 182 183 179 181 178 180 183 186 183 181 178 173 170 164 163 159 159 159 158 162 164 164 162 159 154 152 149 147 149 148 144 140 138 132 125 134 138
152 225 227 200 239 246 240 170 102 17 225 230 214 211 205 207 201 207 223 233 189 204 238 258 167 210 214 198 199 202 173 187 162 171 167 142 119 111 121 140 158 164 165 175 188 187 181 185 189 186 182 184 176 181 185 184 187 185 182 179 178 172 174 165 162 166 166 167 169 171 165 160 158 154 149 149 151 150 149 147 141 133 133 136 144 134
125 242 232 170 238 246 246 236 147 216 257 298 257 235 220 207 209 212 223 227 221 230 230 106 25 282 58 202 197 205 176 148 115 115 122 133 151 146 147 164 180 186 189 193 192 191 190 192 190 188 184 183 184 185 187 188 189 189 185 182 180 177 174 164 171 169 171 173 173 168 166 162 158 155 150 153 157 157 152 148 147 146 147 148 142 133
167 257 135 158 233 252 245 243 217 218 223 256 256 247 243 232 221 219 226 232 234 252 255 252 218 250 242 96 150 30 100 96 87 101 123 125 132 149 162 184 198 202 204 198 187 191 196 195 193 188 187 190 190 191 191 192 189 183 182 181 183 182 177 170 171 176 177 177 173 169 165 162 161 156 160 161 156 158 156 152 150 152 148 150 147 146
169 261 69 148 209 254 244 220 235 225 252 257 265 252 235 202 207 215 222 220 209 223 230 239 248 246 129 113 57 91 114 127 134 124 101 122 166 167 187 202 201 203 197 193 196 195 192 192 191 191 195 195 193 190 187 185 183 181 188 186 188 184 172 175 180 182 183 178 172 173 169 167 160 162 165 162 165 163 158 149 150 157 157 155 149 145
189 163 171 174 211 244 17 151 179 122 264 295 250 244 224 211 225 232 238 218 217 219 228 222 233 177 174 162 128 174 140 149 131 128 163 195 195 194 203 208 205 194 193 197 198 195 194 193 194 192 193 187 184 186 192 185 180 189 191 190 190 172 176 184 184 183 182 180 177 175 172 168 167 169 169 170 163 157 152 154 156 158 160 167 159 147
176 196 210 166 217 226 79 134 115 147 206 236 317 116 182 207 210 211 222 212 185 176 222 224 201 146 153 148 158 195 160 190 175 211 193 196 197 199 213 215 202 193 196 200 194 193 192 181 182 187 187 190 191 193 190 183 189 195 191 187 176 179 184 182 187 185 185 181 181 177 173 171 169 173 172 164 157 155 156 161 172 167 162 153 150 160
184 191 218 166 199 183 137 124 165 200 232 4 290 313 226 205 202 211 222 183 204 214 226 228 180 165 173 171 178 188 198 218 214 211 218 199 170 182 198 200 187 184 187 180 182 185 183 184 188 188 189 193 193 191 181 191 195 188 182 180 181 186 183 187 185 188 187 186 182 174 173 173 174 175 171 164 158 158 164 168 163 162 167 167 168 169
182 186 150 215 139 69 136 183 199 227 309 278 344 327 14 96 161 183 238 241 219 203 191 217 233 220 198 201 207 200 200 201 222 245 186 186 172 185 192 195 195 173 175 182 178 185 181 184 185 186 194 190 177 185 183 192 183 177 188 176 182 183 186 183 187 192 190 191 182 176 174 173 178 177 169 164 162 165 169 169 174 171 167 159 162 160
182 178 184 208 161 182 193 202 232 350 315 222 73 204 170 149 166 168 200 239 223 192 183 206 229 233 210 197 178 129 110 80 286 274 227 200 225 204 175 189 177 193 191 195 179 188 187 180 177 185 166 167 179 177 189 179 168 174 166 173 183 179 182 182 190 195 195 192 180 177 178 181 180 176 172 170 168 173 174 171 175 171 160 158 167 167
196 190 190 186 223 156 157 188 315 263 247 251 198 207 202 184 156 176 155 266 116 173 184 192 221 225 204 180 155 138 104 148 261 251 225 214 211 199 202 184 178 165 159 148 122 126 141 154 151 159 159 167 176 184 173 163 165 165 172 180 179 177 183 185 196 194 192 191 186 187 188 186 179 176 176 173 178 178 176 170 165 170 170 167 167 174
69 63 355 207 205 126 199 204 210 217 244 142 225 206 192 105 121 95 73 268 246 173 191 188 217 216 189 166 162 142 130 210 240 247 233 190 198 184 187 204 149 145 152 160 155 150 138 139 142 145 142 152 171 185 163 163 160 164 180 181 179 180 184 196 199 195 195 197 194 191 183 179 177 178 176 179 182 175 171 175 175 166 153 161 158 163
168 187 179 210 209 204 191 204 220 229 252 267 206 114 150 123 105 83 43 265 235 190 194 183 207 208 173 165 153 168 180 220 237 252 195 175 174 173 172 177 160 143 122 109 115 141 142 127 110 124 149 171 187 170 163 162 167 176 181 183 175 181 196 203 203 201 201 195 183 180 178 178 181 179 178 182 173 172 172 154 146 160 159 157 153 154
173 201 206 210 204 209 204 232 345 292 276 148 171 163 145 123 108 130 211 213 216 219 220 182 204 172 155 159 167 179 218 201 176 143 133 112 96 91 81 121 161 159 151 140 142 129 133 149 158 175 185 188 175 163 161 157 164 182 184 176 178 199 206 208 201 194 192 175 168 173 178 178 182 181 183 176 170 161 154 158 158 152 155 156 150 152
187 131 224 184 219 213 218 220 237 293 222 162 232 158 167 115 196 208 232 339 147 169 98 150 141 162 159 172 184 201 162 130 129 104 117 130 146 163 131 109 91 88 122 145 150 140 143 149 160 158 167 170 158 155 151 156 173 188 174 175 199 211 214 197 181 175 168 171 178 177 176 179 178 175 166 154 148 154 157 152 146 154 154 155 157 163
180 159 196 196 191 195 167 233 199 228 169 121 122 40 322 131 236 157 137 18 121 159 141 144 144 168 152 179 198 173 125 133 146 165 167 167 140 157 157 147 149 155 151 141 154 173 150 160 175 183 184 169 152 154 157 156 178 184 183 194 216 215 187 171 167 169 175 176 175 178 177 173 168 163 158 159 161 156 156 152 149 151 154 156 156 162
204 125 204 220 178 154 186 202 207 199 152 187 135 169 199 197 178 162 129 111 47 142 160 130 145 169 164 166 180 193 162 138 160 150 132 137 134 119 142 161 159 157 165 185 172 178 159 171 176 179 186 161 159 162 167 168 183 188 192 217 222 159 154 166 171 166 172 178 177 165 167 165 160 156 155 157 154 154 151 156 153 153 164 162 161 166
222 177 203 177 200 161 200 187 201 219 161 171 132 245 136 120 120 195 128 143 156 209 170 138 181 185 171 149 148 159 155 192 180 171 153 184 160 161 166 188 182 181 180 177 182 183 175 182 183 175 176 178 169 178 176 181 176 190 207 227 159 180 174 171 164 169 179 177 171 167 158 150 155 158 159 160 158 158 159 156 157 158 173 165 171 174
346 133 124 85 302 150 85 122 148 87 144 108 4 335 120 127 25 76 130 123 205 179 174 171 192 176 177 160 132 163 162 175 136 177 171 170 169 196 193 186 192 177 168 164 165 178 185 169 158 167 187 202 188 187 188 189 181 186 224 188 173 175 165 162 167 179 184 173 166 161 150 152 153 154 161 163 173 173 171 167 170 171 170 177 186 186
198 128 93 143 257 184 239 51 78 151 141 133 119 34 43 76 101 60 88 144 164 154 152 134 160 183 178 148 154 162 165 155 171 196 189 179 179 185 188 192 193 185 175 185 194 157 162 173 178 193 195 209 210 193 197 196 206 217 206 166 174 158 157 164 176 181 171 168 158 153 161 164 168 167 166 174 170 173 169 172 175 174 175 181 184 190
278 168 77 209 274 163 229 151 200 232 159 69 134 144 166 166 104 61 88 106 116 124 156 173 115 92 108 131 160 156 205 182 160 193 182 196 200 200 202 205 203 200 212 199 175 162 157 173 194 205 205 224 218 194 198 204 219 225 212 183 162 156 156 172 179 181 181 173 166 169 175 176 170 168 175 184 180 179 181 188 187 187 189 185 185 182
168 112 207 171 162 180 62 45 137 78 195 234 243 260 226 174 163 153 131 114 94 118 110 58 79 158 130 171 148 160 172 222 179 186 188 201 205 206 216 218 219 216 212 190 187 170 184 190 200 212 210 230 216 188 199 218 229 220 207 202 165 159 167 181 184 175 169 166 164 177 180 181 178 184 179 184 195 210 199 187 189 199 207 213 192 190
103 188 183 108 108 211 209 192 158 125 243 235 219 212 214 187 141 158 159 157 176 177 184 173 263 78 145 166 159 162 177 214 212 183 202 203 201 208 216 224 228 229 239 228 179 187 200 203 208 218 225 245 220 193 211 224 228 213 199 175 167 165 180 181 172 177 183 177 181 177 175 186 184 184 187 190 197 199 223 230 215 213 200 203 201 209
169 189 143 162 192 228 185 169 177 174 175 194 197 221 192 167 150 157 182 200 210 202 173 160 180 234 223 239 193 165 192 192 222 203 210 223 226 215 208 208 220 230 228 190 167 199 201 217 212 216 238 240 218 219 218 222 217 197 192 173 168 172 176 157 172 189 190 181 196 187 184 182 186 189 192 195 195 200 205 217 225 221 220 213 211 211